Zurück zum Katalog

ATLAS 5 CENTAUR DEB

AktivHEO
NORAD 43981·DEBRIS·🇺🇸 United States

Gestartet Sep 17, 2014 von Cape Canaveral Space Force Station

Loading…

Nächste Überflüge (nächste 24 Stunden)

TLE

AlterndSource: Space-Track

Epoche: Aug 28, 2026, 22:53 UTC

1 43981U 14055AL  26240.95376427 -.00000084  00000-0  00000+0 0  9999
2 43981  20.1398 131.6342 5091447 179.9348 180.1533  1.78788093 52088

Verfolge ATLAS 5 CENTAUR DEB in Echtzeit mit AllMySat

Download on the App Store